Theta_e
356 356 348 342 343 344 347 349 350 351 352 352 352 352 352 353 354 354 354 353 353 353 352 352 352 351 351 351 351 351 352 352 352 352 352 352 353 353 352 352 353 353 354 355 354 353 352 352 354 356 355 354 353 353 352 352 352 352 352 352 353 355 354
355 356 351 344 342 345 348 349 350 350 351 352 352 352 352 353 354 354 354 353 352 352 352 351 351 351 351 351 351 351 351 351 352 351 352 352 352 352 351 351 351 351 352 354 353 351 350 351 353 355 356 355 355 353 352 353 352 352 354 353 354 355 354
357 357 354 347 343 344 348 348 349 350 350 351 351 351 352 352 353 353 354 353 353 353 352 352 352 351 351 351 351 351 351 351 351 351 351 352 352 352 351 351 351 352 352 353 353 352 352 353 354 355 356 356 357 355 353 353 352 352 353 353 355 356 355
360 357 355 352 346 344 347 348 348 349 349 350 351 351 352 352 353 353 353 354 354 353 352 351 351 351 352 351 351 351 350 350 351 350 351 352 352 352 351 351 352 353 354 353 353 354 353 354 355 355 355 355 356 355 353 353 353 352 352 353 356 357 355
361 358 356 354 350 347 346 347 348 349 349 349 350 350 351 352 352 352 353 353 354 353 352 352 352 352 351 351 351 351 349 349 351 350 350 351 351 351 352 353 353 353 354 353 353 353 353 354 355 355 355 354 355 356 355 354 354 354 354 355 356 357 357
361 360 358 357 354 350 348 347 347 348 349 349 349 350 351 351 352 352 352 353 353 354 353 352 352 351 350 350 351 349 348 348 350 350 350 349 350 351 352 353 353 353 353 354 353 352 353 353 354 355 355 355 357 357 357 356 355 356 356 355 356 357 357
359 359 359 359 356 353 353 351 349 348 348 348 349 350 350 351 351 351 352 353 353 353 353 352 352 352 350 350 350 348 348 349 350 349 350 350 350 352 353 352 352 352 353 354 353 353 353 354 355 356 355 356 356 357 357 356 355 356 356 355 356 356 356
357 357 358 359 357 355 355 355 353 350 348 348 349 350 349 350 351 352 352 353 353 352 351 351 351 351 351 349 349 348 348 350 350 349 350 352 352 352 353 352 351 351 351 353 354 353 354 355 356 356 356 356 356 356 356 355 354 356 357 356 356 357 358
355 356 356 356 356 355 357 357 355 352 348 347 349 349 350 350 351 351 351 352 353 351 350 350 350 350 349 349 349 349 349 350 350 350 350 352 353 353 353 353 352 351 351 354 355 354 353 355 356 356 355 356 357 357 357 357 356 356 357 356 357 357 358
354 354 354 354 354 355 355 356 356 355 352 350 348 348 350 351 350 351 352 352 352 351 351 352 351 349 349 349 350 351 352 351 351 352 352 353 353 353 353 353 353 351 351 354 357 356 354 354 355 355 354 356 356 356 357 357 357 356 356 356 357 357 358
351 352 353 354 354 354 354 355 355 355 355 354 352 351 350 349 349 350 350 350 350 351 352 351 350 349 349 350 350 352 353 353 353 353 353 353 353 353 353 353 353 351 351 353 355 356 356 355 354 354 354 355 355 355 355 356 356 356 357 357 357 357 358
345 346 348 350 352 353 353 354 354 354 354 355 355 354 352 350 349 349 350 350 349 350 351 351 351 351 351 351 352 352 353 355 355 355 355 355 355 355 355 354 354 353 352 353 354 355 356 356 356 355 354 354 355 355 354 353 354 354 355 357 358 357 358
341 341 342 344 349 353 352 352 353 353 353 354 354 355 354 352 351 351 351 351 351 351 351 351 351 352 352 353 353 354 353 354 355 354 355 355 354 355 356 355 355 355 354 354 354 354 355 355 356 356 355 354 355 355 354 352 352 352 352 354 356 357 357
341 341 341 343 347 351 351 351 352 352 352 353 354 353 353 353 353 353 353 353 353 352 352 353 353 354 354 355 356 356 355 355 356 354 353 353 353 353 355 355 356 356 356 355 355 354 354 354 354 355 355 355 355 355 354 353 353 353 351 351 352 353 355
341 342 343 343 344 348 350 349 349 349 349 350 350 350 351 352 353 353 353 353 354 354 354 354 355 356 356 356 356 356 356 356 356 355 354 354 353 353 354 354 355 356 356 356 356 355 355 354 354 354 355 355 355 354 354 354 354 354 352 351 351 351 354
341 341 342 342 341 344 345 344 344 343 344 345 345 346 347 348 349 350 351 351 352 353 353 353 354 354 354 355 355 355 355 355 354 355 355 354 354 355 355 355 355 355 355 356 355 355 355 354 355 355 355 355 354 354 354 354 354 353 352 352 351 351 354
340 339 339 339 339 339 339 340 340 339 339 339 340 341 342 343 344 346 347 348 349 350 350 351 351 350 350 352 353 353 354 354 353 353 353 353 353 354 355 355 355 355 355 355 355 354 355 354 354 354 354 354 353 353 353 353 353 351 350 350 350 351 353
338 338 337 336 336 336 335 336 337 336 336 336 337 337 338 338 340 340 342 343 345 346 347 348 348 347 348 349 350 352 352 353 353 353 353 353 353 352 352 353 353 354 354 354 354 354 354 354 353 352 352 352 352 352 352 352 351 350 350 349 349 349 350
337 336 335 334 333 333 334 334 335 335 335 335 335 335 335 335 335 336 337 338 340 342 343 343 343 343 344 345 346 348 350 351 351 352 352 353 353 353 352 352 352 353 353 354 354 354 354 353 353 352 351 351 350 350 351 351 350 349 350 350 350 349 348
335 335 334 332 331 331 332 333 333 334 333 332 331 331 332 333 332 332 333 334 335 337 337 337 338 338 340 342 343 344 346 347 348 348 349 350 351 352 352 352 352 352 352 353 353 353 353 354 354 353 352 352 351 351 352 352 351 349 349 350 350 349 348
334 334 333 331 331 330 331 332 332 332 332 330 328 329 329 329 330 330 330 330 331 331 331 332 332 333 335 338 340 342 343 343 343 343 344 345 346 348 348 349 350 350 350 351 351 352 352 353 353 353 353 354 354 354 354 353 352 350 350 350 350 350 349
333 332 331 331 332 331 331 331 331 331 329 329 329 328 327 327 328 328 328 328 329 328 328 328 328 329 331 333 336 339 340 340 339 339 339 339 340 341 344 345 347 347 348 347 348 350 351 351 351 352 352 353 353 353 354 353 352 352 352 352 351 351 351
332 330 330 330 330 330 330 330 330 328 327 327 327 326 326 326 327 327 327 327 327 327 327 327 326 327 328 329 331 333 335 335 335 336 337 337 338 339 340 342 343 344 345 346 347 348 349 350 350 350 351 352 352 353 353 351 351 351 351 352 353 352 352
330 329 328 328 328 328 328 328 328 326 324 324 324 324 324 325 325 326 325 325 325 325 325 325 325 326 326 327 327 329 330 332 334 336 338 339 341 341 342 343 343 344 345 346 347 347 348 349 349 348 349 349 349 350 349 348 349 350 351 351 352 352 353
328 327 327 328 328 328 327 327 326 325 323 322 322 322 323 323 324 324 323 323 323 323 323 322 323 324 325 326 327 327 329 331 334 337 337 337 338 339 340 340 340 341 341 341 341 341 342 343 343 343 343 343 343 345 346 345 345 347 349 350 351 352 352
327 326 326 327 326 326 326 326 325 324 323 322 321 321 321 322 322 321 320 321 321 321 321 321 321 322 324 326 326 327 328 331 334 336 335 333 333 333 333 333 333 334 334 334 334 335 336 337 337 336 336 337 338 340 342 342 341 342 343 345 347 348 349
326 325 325 325 324 324 324 324 323 323 322 320 320 320 320 320 319 319 319 319 319 319 319 320 320 321 322 324 326 326 328 331 334 335 334 332 330 330 330 330 330 330 331 331 331 332 332 332 332 331 331 333 335 337 339 340 340 338 339 340 341 343 345
325 324 324 324 323 322 322 322 322 321 321 320 319 319 318 317 318 318 318 317 317 318 318 319 319 320 320 322 324 325 327 328 330 331 330 328 326 325 325 326 326 327 329 330 330 330 330 329 329 328 327 328 330 333 336 337 337 336 336 337 337 338 339
325 324 323 323 323 322 321 321 320 320 320 319 318 318 317 316 317 317 317 316 316 316 317 318 318 319 319 319 321 324 325 326 327 327 326 325 324 323 323 323 323 323 326 327 329 329 329 328 328 326 324 324 325 327 331 333 334 334 335 335 334 334 335
324 323 323 322 322 321 320 320 319 319 318 317 316 315 315 314 315 315 315 315 315 314 315 316 317 318 318 318 319 322 323 324 324 325 325 325 325 324 324 324 323 322 322 323 326 328 328 327 327 326 325 325 324 324 327 331 333 333 333 333 332 332 332
323 322 322 322 321 320 319 319 318 318 317 315 314 313 312 312 312 312 312 313 312 313 315 316 316 317 317 317 318 320 321 322 322 322 323 324 325 325 325 326 326 324 322 323 326 328 329 328 327 326 326 325 325 326 327 330 332 332 331 331 330 330 330
322 322 322 321 320 319 318 318 318 317 316 315 313 312 311 311 311 310 310 310 310 311 315 316 317 317 318 318 319 319 321 323 323 321 321 322 323 324 324 325 327 326 325 326 327 328 330 329 327 326 326 325 325 326 327 329 331 331 330 329 329 328 328
322 322 322 321 319 318 318 318 318 317 317 316 314 313 312 311 311 310 309 309 309 310 314 317 318 318 319 320 321 321 322 324 323 321 321 321 322 324 325 326 327 327 327 327 327 328 329 328 325 324 325 324 324 325 327 330 331 330 328 327 327 326 326
322 322 321 320 317 317 318 319 318 318 317 316 314 313 312 311 311 309 308 309 309 311 314 317 318 319 319 320 321 322 322 323 322 322 322 322 322 323 324 325 327 328 327 327 328 328 327 326 325 323 322 324 325 325 327 329 329 328 327 326 325 325 323
322 321 321 318 316 316 317 318 318 318 317 315 313 312 311 310 310 309 308 309 310 313 316 317 317 318 319 319 320 321 321 322 322 322 323 323 323 323 323 324 326 327 326 325 324 324 324 324 324 322 321 322 324 324 327 329 327 326 325 324 323 322 321
321 321 320 318 316 316 316 316 317 317 315 313 312 312 311 309 309 308 308 308 310 313 316 317 317 317 318 318 319 319 319 320 321 322 322 323 324 324 324 323 323 323 323 322 321 320 321 321 322 321 320 322 323 324 326 327 325 324 322 321 321 320 320
320 320 319 318 317 317 317 316 316 316 314 313 312 311 311 310 309 308 307 307 309 313 316 317 317 317 317 317 317 318 318 319 319 320 320 321 322 323 324 324 322 321 321 321 320 320 320 320 320 320 320 322 324 324 324 324 323 321 321 320 320 319 319
320 319 318 317 317 317 317 317 317 316 314 313 312 311 311 310 309 308 307 307 308 312 315 316 316 316 316 316 316 316 317 318 318 319 319 319 320 321 321 322 323 322 321 321 320 320 320 320 320 320 320 322 324 323 322 322 321 320 320 320 319 319 318
Wind_Speed
7 6 7 8 9 11 12 16 17 17 18 18 18 19 19 19 19 21 23 26 27 26 27 26 25 25 24 23 21 19 17 15 13 12 12 13 12 11 11 11 11 11 10 9 9 10 10 10 10 9 8 7 7 7 7 6 6 7 7 7 6 6 5
7 6 6 8 9 11 13 16 17 17 18 18 17 18 18 19 21 22 23 26 28 27 27 27 26 26 25 24 22 20 19 17 15 13 12 13 12 11 11 10 11 11 10 9 9 10 10 10 10 10 9 8 7 7 7 7 7 7 7 8 7 7 7
6 5 5 7 9 10 13 15 16 17 17 17 18 18 19 21 23 23 23 25 26 26 27 27 27 27 26 25 23 22 20 19 17 14 12 12 12 11 11 10 10 10 10 10 9 9 9 9 10 9 9 8 8 8 7 7 8 8 8 9 8 8 7
5 5 4 5 7 9 11 15 16 17 17 18 19 20 21 22 22 23 23 23 25 26 28 28 27 26 25 25 24 23 22 21 19 15 11 11 11 11 10 9 9 10 9 9 9 9 9 9 9 8 8 8 8 8 8 8 8 9 9 9 8 8 8
6 5 4 3 5 7 9 13 15 17 18 18 19 19 18 19 20 20 21 21 22 23 26 27 25 25 26 25 23 23 23 22 20 16 13 12 11 11 11 9 8 8 8 8 8 9 9 8 8 8 8 8 8 8 8 8 9 9 9 8 8 8 8
6 5 4 4 4 5 7 11 13 15 17 18 19 18 17 18 19 20 20 20 20 19 21 23 23 25 26 25 23 23 23 23 21 18 15 13 12 11 11 10 8 7 7 7 7 8 8 8 7 7 7 7 7 7 8 8 8 9 9 9 8 8 8
5 4 4 4 3 4 6 9 11 13 14 15 15 15 16 18 19 19 19 19 20 20 21 22 23 24 25 25 24 23 23 23 21 19 16 15 14 12 12 11 9 8 7 8 7 7 7 7 7 6 6 7 7 7 7 8 9 9 9 10 10 9 9
6 5 4 4 4 5 6 8 10 12 14 13 13 15 17 17 18 19 19 19 20 22 23 24 23 24 25 25 24 23 22 21 21 19 17 15 14 13 13 13 12 9 8 8 8 8 7 7 6 6 6 6 7 7 7 8 8 9 10 10 11 11 10
8 6 5 5 6 6 6 7 8 11 15 15 15 16 16 17 18 19 19 18 19 22 24 24 24 25 25 25 24 22 21 21 20 19 18 15 14 14 12 12 13 12 9 8 8 8 8 7 7 7 6 7 6 6 6 7 8 10 11 11 12 12 11
7 7 7 7 6 5 7 8 7 9 11 14 17 18 17 18 18 16 17 19 20 21 21 21 22 23 23 23 22 20 19 19 19 17 17 15 14 14 13 11 12 13 11 8 7 8 8 8 8 7 7 7 7 7 7 7 8 10 11 12 12 12 12
3 4 6 8 7 6 6 7 8 8 8 9 12 15 17 19 20 18 19 21 22 20 19 20 21 21 21 20 20 18 17 16 16 16 16 15 13 12 12 11 11 13 13 10 8 8 8 9 9 9 9 9 8 8 8 8 9 10 11 12 12 12 12
4 3 1 4 8 8 6 7 9 9 9 9 8 10 13 17 20 20 19 20 20 19 18 18 18 18 18 18 18 17 16 14 13 13 12 12 11 10 10 10 10 11 12 12 10 9 9 9 10 10 11 11 10 10 10 9 10 11 12 12 12 13 13
5 4 4 2 5 7 6 6 9 10 10 11 10 10 10 12 15 16 16 16 16 17 17 16 16 16 16 16 15 16 16 15 13 13 12 12 11 10 8 8 9 9 10 11 11 11 10 10 10 11 13 13 13 12 12 12 11 12 12 12 13 14 15
7 5 4 3 3 8 8 7 8 11 11 11 12 11 11 10 11 11 12 12 12 13 14 13 12 12 12 12 12 12 12 12 12 13 14 15 15 13 11 10 9 9 9 10 10 11 11 11 10 11 11 12 13 13 13 14 14 13 13 13 14 15 16
8 6 6 6 3 4 8 7 7 10 12 13 15 14 12 11 11 11 10 10 10 10 10 9 9 9 9 9 10 10 9 9 9 10 12 14 14 14 14 13 12 11 10 10 10 11 11 11 10 10 10 11 12 13 13 14 15 15 14 13 14 15 16
9 9 9 10 9 6 6 8 10 13 15 17 17 15 13 11 10 11 11 10 9 10 9 9 9 8 8 8 8 8 8 8 8 9 11 13 13 13 13 13 12 12 12 11 11 12 12 12 12 11 10 10 10 11 13 14 15 15 14 13 14 15 16
10 11 12 12 11 9 9 12 14 16 18 19 19 18 16 14 12 11 11 10 9 10 10 10 9 7 6 5 5 6 7 7 8 8 9 11 13 13 14 14 14 13 13 12 12 13 13 13 12 11 10 10 10 10 10 12 14 15 15 14 14 15 15
11 12 12 12 11 11 10 13 16 18 20 20 21 21 19 18 17 15 14 15 14 13 12 12 11 9 7 5 4 4 5 6 6 7 7 8 9 11 12 13 14 14 13 12 12 13 12 12 12 12 11 10 10 9 9 10 13 15 16 15 15 14 14
11 12 13 12 12 11 11 13 16 20 22 22 22 22 21 22 22 20 18 19 20 18 17 18 17 15 13 11 9 7 6 6 6 5 5 5 6 7 7 9 10 10 10 9 8 10 11 12 12 12 12 11 11 10 8 8 11 13 14 14 15 14 13
12 12 12 12 12 11 11 13 16 19 22 24 24 24 24 25 25 23 22 22 23 22 22 22 21 19 17 15 13 11 9 8 9 8 7 6 6 5 5 5 6 6 6 6 5 7 9 10 10 11 11 10 10 9 6 6 10 13 13 13 14 13 13
12 12 11 11 12 13 13 14 15 17 21 23 25 26 26 26 26 25 24 24 25 25 24 23 23 21 18 17 15 13 12 12 12 11 9 8 7 6 6 5 4 4 4 4 4 4 7 8 8 8 8 7 6 5 3 4 9 11 12 13 13 13 14
12 11 10 11 13 13 13 13 14 17 21 23 24 26 26 25 25 26 25 25 26 25 25 25 24 22 20 19 17 16 16 16 15 12 10 9 9 8 7 6 6 5 4 4 3 3 5 6 5 5 4 4 4 4 3 4 7 8 10 12 13 12 13
13 13 12 13 14 13 13 14 15 19 23 25 25 24 24 24 25 25 25 25 25 25 25 25 23 21 20 19 17 17 17 16 15 13 11 10 10 10 9 7 7 6 4 3 3 4 4 4 3 3 3 2 1 2 2 2 5 6 7 8 9 10 10
15 15 15 15 16 16 15 16 17 20 24 26 25 25 24 23 22 23 24 24 24 24 24 24 21 19 18 17 16 16 16 16 15 15 14 13 12 12 10 9 9 9 8 6 4 5 6 6 6 5 5 4 4 4 4 2 2 4 6 6 7 8 7
14 15 15 15 17 17 17 18 20 21 24 24 23 24 24 22 22 23 23 22 22 22 23 21 19 18 17 15 15 16 16 16 16 16 17 17 17 16 13 12 12 12 11 9 7 7 8 8 8 9 8 7 6 5 5 4 3 3 4 5 6 6 5
14 15 15 15 16 17 18 19 20 19 20 21 20 20 20 21 22 23 22 21 21 21 19 18 17 16 15 15 15 15 16 16 16 16 17 17 18 17 16 15 14 13 12 10 9 9 10 10 11 12 11 9 8 7 6 6 5 5 5 4 4 4 3
14 15 15 15 17 19 19 19 19 18 18 18 18 17 17 19 20 21 20 19 19 18 16 14 14 13 13 14 14 15 15 16 16 16 16 17 17 17 17 16 15 14 13 12 11 12 13 13 14 15 14 12 10 9 8 7 6 6 6 6 7 7 6
15 14 15 15 17 18 18 17 17 17 16 16 16 16 16 18 19 19 18 18 17 14 12 12 11 10 11 12 13 14 15 15 16 17 16 16 17 17 16 16 15 14 13 13 13 15 15 15 15 16 16 14 12 11 9 7 7 8 9 10 10 10 9
15 15 15 15 15 16 17 16 15 15 14 14 14 14 14 16 17 16 15 15 13 10 9 9 8 8 9 10 11 12 13 13 14 14 15 15 15 15 16 15 14 14 13 12 13 14 15 15 14 14 14 14 13 11 10 9 11 11 12 12 13 12 11
14 14 15 15 14 16 17 17 15 14 14 14 14 13 12 12 14 14 13 12 10 8 8 7 6 7 7 8 9 10 11 12 12 12 12 12 12 13 13 13 13 13 13 12 12 13 13 14 13 13 13 13 13 12 11 11 12 13 13 13 13 13 12
14 15 15 15 15 16 17 17 16 15 15 14 13 13 12 11 11 11 11 9 7 7 8 7 7 7 7 8 8 9 9 10 10 10 10 9 10 11 11 11 11 11 12 12 12 11 11 11 11 11 11 12 12 12 12 10 10 11 12 11 11 12 11
14 15 15 15 16 17 18 17 16 15 15 13 12 12 11 11 11 10 9 7 6 6 6 7 7 7 7 8 8 8 8 8 7 8 8 8 8 8 8 8 8 8 9 9 9 9 9 9 9 10 9 10 10 10 11 10 8 9 10 10 10 11 11
13 14 15 16 18 19 18 15 14 14 13 12 11 10 10 11 11 10 8 7 5 5 5 7 7 7 7 7 6 7 7 6 6 6 6 7 7 6 6 6 6 6 6 6 7 7 7 7 8 9 9 9 9 8 7 7 6 8 9 10 11 12 13
13 13 14 16 19 19 17 14 13 13 12 11 10 10 9 10 10 9 8 8 6 5 5 6 7 7 7 6 6 6 6 6 7 7 6 7 6 6 5 5 4 5 5 5 6 6 6 6 7 8 9 8 8 7 5 5 6 7 9 11 12 13 14
12 14 16 18 19 18 16 14 14 13 13 12 11 10 9 9 8 8 8 8 7 7 7 7 7 7 6 6 5 5 5 6 7 7 7 7 7 7 6 5 5 5 6 7 7 7 6 6 6 7 8 8 7 7 6 5 6 8 10 11 12 13 14
14 14 16 19 18 17 16 15 14 14 14 14 12 10 9 8 8 8 7 7 7 7 7 7 8 7 6 5 5 5 4 4 5 6 7 7 7 7 7 6 7 7 7 7 7 7 7 7 6 7 8 7 6 6 6 6 7 8 10 10 11 12 13
18 17 18 20 19 17 16 16 15 15 15 14 12 10 9 8 7 7 6 7 7 7 6 7 7 7 6 5 4 4 4 4 4 4 5 5 5 6 5 5 5 6 7 7 6 6 7 7 6 7 7 6 6 6 7 7 7 7 8 9 9 10 11
20 21 21 21 19 19 19 18 16 16 16 15 13 11 10 8 7 6 6 6 6 6 6 6 6 6 6 4 4 4 4 4 4 3 4 4 4 4 4 3 2 2 3 5 5 5 5 5 5 5 5 5 6 6 7 6 6 6 7 7 7 7 8
Wind_Direction
177 185 191 190 190 190 190 190 189 187 187 188 188 185 182 180 183 187 192 197 200 201 203 204 204 204 204 205 206 207 209 212 217 224 229 227 223 220 219 215 211 210 209 208 212 215 216 216 216 219 220 216 211 209 209 211 211 212 214 215 220 231 245
174 180 185 189 192 192 191 190 189 189 189 189 187 184 182 180 185 189 193 198 200 203 204 204 204 205 206 207 208 209 211 214 220 227 229 228 225 222 220 219 216 216 216 216 220 219 216 215 217 223 227 226 222 217 212 211 212 213 216 218 222 232 246
170 170 177 190 194 193 190 187 189 192 191 189 187 186 186 186 188 190 194 197 198 201 204 204 206 207 208 210 210 211 214 216 221 225 225 223 222 218 217 218 219 222 225 226 226 221 215 212 214 220 227 229 229 226 222 220 217 217 219 222 228 236 247
158 159 163 186 194 194 191 187 190 194 193 193 192 191 191 189 188 190 194 197 197 199 204 206 207 209 211 213 213 214 215 216 218 220 217 213 216 218 216 216 219 224 229 230 226 220 215 212 212 216 225 231 232 230 229 230 226 223 224 227 232 240 249
153 156 152 163 185 190 192 191 192 193 194 196 194 193 190 186 185 188 192 196 198 201 205 207 207 210 215 216 216 216 215 214 215 215 211 208 211 215 215 217 222 227 229 227 220 214 212 213 215 220 228 231 233 233 233 234 232 229 228 229 236 244 251
158 155 156 158 171 181 189 194 195 195 196 197 195 191 185 182 184 187 189 192 195 198 202 205 206 211 216 215 216 218 216 213 214 214 211 209 209 213 217 222 228 230 227 222 214 208 209 216 223 229 232 230 228 232 236 238 235 232 232 236 244 249 251
155 153 161 154 154 167 176 185 190 194 198 198 194 187 183 184 184 185 187 190 192 195 199 204 207 211 214 214 215 218 218 214 214 215 213 212 213 215 220 228 234 234 228 224 219 212 212 220 228 232 232 231 231 234 241 244 241 237 239 245 252 256 257
161 159 167 159 156 160 161 170 178 185 191 194 191 189 189 188 185 186 189 189 190 196 202 206 209 211 213 214 215 217 217 215 215 216 215 214 216 218 222 230 236 237 234 230 226 222 222 224 228 231 230 233 241 247 251 252 247 243 245 251 259 263 261
178 170 166 161 161 162 158 158 164 175 185 190 191 192 192 189 189 192 193 190 191 199 205 208 210 212 214 215 215 214 215 215 216 218 217 216 219 221 222 226 232 238 239 234 230 230 231 229 230 233 233 235 245 252 255 256 254 253 255 260 265 265 261
184 184 180 169 159 162 164 156 150 163 177 186 189 191 192 193 193 193 194 196 199 202 203 204 208 213 214 214 214 211 211 213 213 214 214 215 220 223 224 224 226 233 238 235 233 235 238 239 239 242 243 242 246 251 253 255 257 260 264 268 271 268 263
136 180 193 188 174 163 162 158 151 152 163 175 182 185 189 193 195 197 201 205 207 205 201 204 209 212 212 212 213 210 210 210 210 211 214 216 220 224 227 227 224 228 232 232 234 239 244 249 251 253 254 253 253 253 254 256 259 265 269 271 274 273 268
70 57 23 219 199 175 158 158 154 151 156 158 158 165 176 187 193 198 204 207 208 207 205 207 209 209 208 208 210 212 213 211 209 211 213 216 221 223 226 229 229 229 230 230 233 238 245 251 254 259 265 267 267 263 261 261 263 267 271 271 273 276 275
71 60 36 340 219 179 152 149 146 140 145 145 141 144 154 169 181 188 193 198 202 204 204 207 206 204 205 206 206 210 213 213 213 214 214 218 225 226 226 228 231 233 233 232 234 234 237 244 251 261 269 273 274 272 270 270 268 266 268 270 271 275 277
86 86 74 64 181 166 146 140 134 127 126 121 116 121 127 138 153 165 175 181 187 194 197 199 197 194 197 199 201 205 208 210 213 216 220 225 229 232 233 234 234 236 236 236 237 236 235 237 243 253 263 269 273 275 275 276 275 270 267 268 270 273 275
86 79 77 68 62 138 139 131 114 106 101 96 95 98 104 117 130 139 147 154 162 173 178 178 177 179 183 188 193 197 197 200 206 211 218 223 226 229 233 236 239 239 238 237 237 237 235 234 236 241 248 259 270 275 276 277 278 275 271 269 272 274 273
83 69 66 59 35 35 90 98 91 87 84 86 89 88 90 98 109 120 124 131 142 145 149 157 161 163 171 180 187 190 189 192 199 206 214 220 224 227 229 232 234 233 234 236 236 237 239 240 240 239 240 248 259 267 272 275 278 281 281 277 276 276 274
87 76 69 63 46 38 63 79 82 82 79 81 84 85 86 87 92 103 109 114 123 129 137 144 142 142 156 179 192 193 192 194 198 204 214 220 224 228 230 231 231 229 230 232 235 240 243 242 241 239 237 238 243 251 259 266 273 281 286 286 283 280 276
97 90 82 75 58 45 55 71 78 81 81 81 81 80 80 81 82 86 93 102 109 118 127 129 128 132 135 142 155 165 180 191 192 194 206 215 218 221 225 228 229 230 228 225 229 236 237 235 236 237 235 233 234 239 247 258 269 277 282 284 285 284 278
107 101 96 92 81 65 60 66 74 79 82 83 82 80 80 80 79 75 79 91 102 108 111 109 112 117 117 117 117 113 123 141 144 150 168 184 193 198 205 212 216 221 221 217 219 226 229 230 232 233 231 230 229 230 236 252 266 272 276 278 281 282 277
112 109 104 100 95 88 79 74 75 78 81 83 85 87 86 84 82 80 80 86 92 95 95 94 94 97 99 104 107 101 98 104 105 108 118 132 147 152 155 171 187 197 202 204 212 222 227 229 231 232 232 234 236 233 225 238 256 263 269 274 277 279 279
114 111 107 105 105 103 97 94 89 84 84 86 87 89 89 88 89 89 86 86 87 86 85 84 82 80 82 88 95 96 95 96 98 98 101 107 114 112 106 108 119 136 149 157 174 209 227 229 229 233 232 233 239 232 204 229 251 256 262 268 273 276 276
121 114 107 108 111 108 106 105 101 97 97 97 95 92 90 90 92 91 87 85 85 83 82 81 78 74 74 77 84 93 98 100 101 97 93 94 97 95 91 91 99 108 111 122 145 176 214 224 225 226 225 226 233 220 202 245 258 256 258 263 267 270 271
120 118 111 108 107 104 103 104 103 104 105 104 102 100 97 96 95 92 88 85 84 83 84 81 77 74 72 72 77 86 93 97 99 98 96 93 89 84 81 82 90 95 96 111 145 156 166 174 167 169 181 179 183 181 184 253 275 270 268 268 268 269 270
116 117 116 115 113 109 106 104 103 105 105 103 102 102 103 103 101 95 89 84 82 82 80 77 76 75 73 71 74 80 84 87 89 90 91 90 87 87 90 93 98 101 104 111 125 127 128 125 114 110 111 98 88 107 114 73 327 293 286 285 281 278 277
117 117 116 115 115 113 109 107 105 103 102 100 99 101 103 103 101 94 85 80 79 77 73 72 73 75 75 74 73 75 77 80 85 88 89 89 90 93 95 96 98 99 100 106 115 115 111 108 101 97 96 90 84 88 85 60 22 346 321 305 295 294 296
123 122 118 113 112 111 109 108 103 98 97 97 97 100 101 100 96 89 83 80 77 72 68 68 71 73 75 76 74 74 74 78 87 94 93 91 91 93 93 90 90 92 96 107 117 112 103 98 93 88 84 81 82 83 76 60 43 29 12 356 350 347 351
122 120 117 114 114 112 107 103 99 96 97 100 100 100 99 99 93 87 83 80 75 70 68 70 72 74 75 76 77 77 78 83 92 98 98 94 92 92 93 92 92 95 99 104 105 100 94 91 87 82 77 75 78 81 78 68 52 40 33 33 33 30 34
121 116 115 114 115 112 106 101 99 98 96 97 98 97 98 99 94 87 84 79 73 70 70 70 70 70 72 76 79 81 84 90 97 100 101 99 96 93 92 91 91 94 96 96 95 92 89 86 82 79 76 74 75 79 81 72 56 48 46 48 45 39 41
127 122 120 116 114 112 108 103 98 96 95 95 95 94 94 95 92 87 82 76 71 71 71 67 65 65 68 73 78 83 88 92 97 101 102 101 99 95 91 89 87 85 86 88 88 84 79 76 73 69 66 65 65 69 68 58 50 51 51 51 49 45 41
129 126 124 120 117 117 114 109 103 98 96 95 91 87 83 84 86 85 80 74 72 74 74 72 71 71 74 78 80 85 90 92 95 99 102 104 104 99 93 89 85 81 79 79 78 76 71 67 65 61 58 56 56 56 53 48 48 52 52 49 48 45 39
132 129 126 122 122 123 120 116 114 109 102 96 91 84 76 74 77 77 71 67 67 72 76 80 80 81 84 86 86 89 90 88 89 93 96 99 102 102 98 92 84 79 77 75 74 74 70 64 61 59 56 54 53 52 50 49 52 58 58 54 52 50 45
133 133 131 129 129 129 125 121 118 114 107 102 96 89 82 78 78 74 67 58 54 67 80 85 87 89 88 86 85 86 83 77 74 81 87 87 86 91 96 95 87 80 77 73 71 73 73 67 61 57 53 50 48 49 51 54 61 69 68 64 59 55 50
137 138 137 138 139 137 132 127 123 119 115 110 103 95 87 82 78 76 73 67 64 74 89 91 90 90 85 77 70 68 68 66 65 68 74 77 76 77 80 84 84 80 77 76 72 69 69 67 59 53 49 44 39 39 48 57 64 69 66 59 53 49 43
142 143 141 143 146 144 139 134 131 129 126 121 115 106 94 85 79 74 72 75 82 97 103 95 89 87 83 77 70 61 57 62 68 68 65 66 69 71 72 72 72 71 69 73 75 70 64 64 59 49 42 38 30 28 40 52 56 59 57 50 44 39 35
149 150 150 151 154 154 150 143 140 139 137 134 128 116 101 90 81 73 70 74 86 102 107 101 97 97 95 88 80 72 64 61 62 63 62 61 64 70 76 81 88 90 80 73 76 76 69 65 59 46 39 35 29 27 33 44 52 54 52 45 37 33 31
159 159 159 160 161 161 159 154 151 149 145 141 136 124 110 96 83 74 71 73 84 98 106 108 108 108 104 94 82 78 79 75 68 64 61 58 57 61 68 78 89 94 89 79 74 71 65 61 54 43 37 37 41 48 56 64 61 53 43 35 27 23 22
168 168 168 167 166 165 165 163 161 158 153 147 142 133 122 110 94 80 72 74 85 95 100 107 111 110 106 97 85 78 80 80 75 69 65 59 52 49 53 67 80 82 77 71 67 62 60 58 48 38 37 44 61 75 79 74 62 45 32 25 20 18 18
174 174 173 172 172 172 171 170 169 166 159 153 149 141 133 123 109 96 84 79 86 94 95 99 107 110 107 97 86 80 78 72 67 65 65 63 56 45 36 35 56 64 50 47 47 48 52 53 44 36 45 65 80 82 75 61 41 27 21 18 15 16 17